#timestamp,LO_Frequency,Hit,StdDev 
1541451615.3,286046998.7,N
1541451635.2,286046996.1,N
1541451655.9,286046990.9,N
1541451675.7,286046986.9,N
1541451695.6,286046987.4,N
1541451715.4,286046990.0,N
1541451735.2,286046990.0,N
1541451755.1,286046988.8,N
1541451756.0,286046988.8,N
1541451775.8,286046989.4,N
1541451795.7,286046987.4,Y
1541451815.5,286046992.1,P
1541451835.3,286046991.9,P
1541451855.2,286046992.8,P
1541451875.0,286046994.0,Y
1541451875.9,286046994.0,P
1541451895.8,286047003.3,P
1541451915.6,286047007.6,N
1541451935.4,286047007.6,N
1541451955.3,286047004.7,N
1541451975.1,286047006.9,N
1541451995.8,286047006.2,N
1541452015.7,286047009.1,N
1541452035.5,286047007.3,N
1541452055.4,286047005.9,N
1541452075.2,286047003.6,N
1541452095.0,286047004.7,N
1541452095.9,286047004.7,N
1541452115.8,286047004.3,N
1541452135.6,286047000.4,N
1541452155.4,286047001.0,N
1541452175.3,286047001.3,N
1541452195.1,286047003.1,N
1541452215.9,286047007.6,N
1541452235.7,286047005.1,N
1541452255.5,286047007.2,N
1541452275.4,286047005.2,N
1541452295.2,286047007.0,N
1541452315.0,286047005.4,N
1541452315.9,286047005.4,N
1541452335.8,286047005.9,N
1541452355.6,286047006.0,N
1541452375.4,286047004.3,N
1541452395.3,286047002.8,N
1541452415.1,286047000.0,N
1541452435.9,286047002.5,N
1541452455.7,286047003.6,N
1541452475.5,286047005.4,N
1541452495.4,286047005.2,N
1541452515.2,286047004.7,N
1541452535.0,286047007.4,Y
1541452536.0,286047007.4,P
1541452555.8,286047002.6,N
1541452575.6,286047004.9,N
1541452595.5,286047008.7,Y
1541452615.3,286047007.1,P
1541452635.1,286047009.6,P
1541452655.9,286047011.4,P
1541452675.7,286047016.4,Y
1541452695.6,286047010.1,P
1541452715.4,286047010.6,P
1541452735.2,286047008.0,P
1541452755.1,286047011.1,Y
1541452756.0,286047011.1,P
1541452775.8,286046999.9,N
1541452795.6,286046998.3,N
1541452815.5,286046998.8,N
1541452835.3,286046994.9,N
1541452855.2,286046994.6,N
1541452875.9,286046990.5,N
1541452895.7,286046989.2,N
1541452915.6,286046990.2,N
1541452935.4,286046993.2,N
1541452955.2,286046994.2,N
1541452975.1,286046997.5,N
1541452976.0,286046997.5,N
1541452995.8,286046991.7,N
1541453015.7,286046990.9,N
1541453035.5,286046989.5,N
1541453055.3,286046989.5,N
1541453075.2,286046987.9,N
1541453095.9,286046984.2,N
1541453115.7,286046984.4,N
1541453135.6,286046988.3,N
1541453155.4,286046987.1,N
1541453175.2,286046989.0,N
1541453195.1,286046992.4,N
1541453196.0,286046992.4,N
1541453215.8,286046991.7,N
1541453235.7,286046994.7,N
1541453255.5,286046994.4,N
1541453275.3,286046993.6,N
1541453295.2,286046996.4,N
1541453315.0,286046995.4,N
1541453315.9,286046995.4,N
1541453335.7,286046997.8,N
1541453355.6,286046995.0,N
1541453375.4,286047000.7,N
1541453395.3,286047002.1,N
1541453415.1,286047005.1,N
1541453416.0,286047005.1,N
1541453435.8,286047008.9,N
1541453455.7,286047010.5,N
1541453475.5,286047010.1,N
1541453495.3,286047012.3,N
1541453515.2,286047013.6,N
1541453535.0,286047012.6,N
1541453535.9,286047012.6,N
1541453555.8,286047013.3,N
1541453575.6,286047013.7,N
1541453595.4,286047016.1,N
1541453615.3,286047016.9,N
1541453635.1,286047015.8,N
1541453655.9,286047018.7,N
1541453675.7,286047018.6,N
1541453695.5,286047015.9,N
1541453715.4,286047015.8,N
1541453735.2,286047018.8,N
1541453755.0,286047017.5,N
1541453755.9,286047017.5,N
1541453775.8,286047017.7,N
1541453795.6,286047018.9,N
1541453815.5,286047017.4,N
1541453835.3,286047016.9,N
1541453855.1,286047014.5,N
1541453875.9,286047012.5,N
1541453895.7,286047013.7,N
1541453915.5,286047013.2,N
1541453935.4,286047015.2,Y
1541453955.2,286046998.1,P
1541453975.1,286047002.7,N
1541453976.0,286047002.7,N
1541453995.8,286047000.9,N
1541454015.6,286047000.9,N
1541454035.5,286047001.2,N
1541454055.3,286047002.7,N
1541454075.1,286047002.1,N
1541454095.9,286047001.9,N
1541454115.7,286047001.3,N
1541454135.6,286047005.6,N
1541454155.4,286047006.8,N
1541454175.2,286047007.7,N
1541454195.1,286047009.8,N
1541454196.0,286047009.8,N
1541454215.8,286047009.8,N
1541454235.6,286047010.2,N
1541454255.5,286047007.9,N
1541454275.3,286047007.8,N
1541454295.2,286047010.5,N
1541454315.9,286047012.1,N
1541454335.7,286047015.4,Y
1541454355.6,286047010.1,P
1541454375.4,286047012.2,P
1541454395.2,286047015.1,P
1541454415.1,286047015.8,Y
1541454416.0,286047015.8,P
1541454435.8,286047009.5,P
1541454455.7,286047016.9,P
1541454475.5,286047016.0,Y
1541454495.3,286047003.4,P
1541454515.2,286047007.5,N
1541454535.0,286047008.5,N
1541454535.9,286047008.5,N
1541454555.8,286047011.9,Y
1541454575.6,286047005.6,P
1541454595.4,286047005.0,P
1541454615.3,286047004.5,P
1541454635.1,286047008.4,Y
1541454655.8,286047003.9,P
1541454675.7,286047006.5,P
1541454695.5,286047008.1,P
1541454715.4,286047012.0,Y
1541454735.2,286047004.6,P
1541454755.0,286047004.5,P
1541454755.9,286047004.5,P
1541454775.8,286047007.6,Y
1541454795.6,286047000.5,P
1541454815.5,286047000.4,N
1541454835.3,286047002.7,N
1541454855.1,286047002.4,N
1541454875.9,286047002.0,N
1541454895.7,286047003.9,N
1541454915.5,286047002.2,N
1541454935.4,286047002.4,N
1541454955.2,286046999.0,N
1541454975.0,286046999.2,N
1541454976.0,286046999.2,N
1541454995.8,286046996.1,N
1541455015.6,286046996.2,N
1541455035.5,286046994.9,N
1541455055.3,286046992.6,N
1541455075.1,286046987.2,Y
1541455095.9,286046984.8,P
1541455115.7,286046982.3,N
1541455135.6,286046982.7,N
1541455155.4,286046982.8,N
1541455175.2,286046980.9,N
1541455195.1,286046981.8,N
1541455196.0,286046981.8,N
